START_TIME,STEP,MOV.,M29,t_acc.,H22,t_acc.,H26,t_acc.,H30,t_acc.
1979-07-12 00:00:56.310 ,1,1,0.,24.0,0.,24.0,0.,24.0,0.,24.0
1979-07-12 00:01:20.310 ,1,0,0.,24.0,0.,24.0,0.,24.0,0.,24.0
1979-07-12 00:01:44.310 ,2,1,0.,24.0,0.,24.0,0.,24.0,0.,24.0
1979-07-12 00:02:08.310 ,2,0,0.,24.0,0.,24.0,0.,24.0,0.,24.0
1979-07-12 00:02:32.310 ,3,1,0.,24.0,0.,24.0,0.,24.0,0.,24.0
1979-07-12 00:02:56.310 ,3,0,0.,24.0,0.,24.0,0.,24.0,0.,24.0
1979-07-12 00:03:20.310 ,4,1,0.,24.0,0.,24.0,0.,24.0,0.,24.0
1979-07-12 00:03:44.310 ,4,0,0.,24.0,0.,24.0,0.,24.0,0.,24.0
1979-07-12 00:04:08.310 ,0,0,0.,24.0,0.,24.0,0.,24.0,0.,24.0
1979-07-12 00:04:32.310 ,0,0,0.,24.0,0.,24.0,0.,24.0,0.,24.0
1979-07-12 00:04:56.910 ,0,0,0.,24.0,0.,24.0,0.,24.0,0.,24.0
1979-07-12 00:05:20.310 ,0,0,,0,,0,,0,,0
1979-07-12 00:06:32.910 ,0,0,0.,24.0,0.,24.0,0.,24.0,0.,24.0
1979-07-12 00:06:56.310 ,0,0,,0,,0,,0,,0
1979-07-12 00:07:20.910 ,6,1,0.,24.0,0.,24.0,0.,24.0,0.,24.0
1979-07-12 00:07:44.310 ,0,0,,0,,0,,0,,0
1979-07-12 00:08:08.310 ,0,0,,0,,0,,0,,0
1979-07-12 00:08:32.310 ,0,0,0.,24.0,0.,24.0,0.,24.0,0.,24.0
1979-07-12 00:09:44.310 ,0,0,0.,24.0,0.,24.0,0.,24.0,0.,24.0
1979-07-12 00:10:08.310 ,0,0,0.,24.0,0.,24.0,0.,24.0,0.,24.0
1979-07-12 00:10:34.710 ,0,0,,0,,0,,0,,0
1979-07-12 00:10:56.310 ,0,0,0.,24.0,0.,24.0,0.,24.0,0.,24.0
1979-07-12 00:12:08.910 ,0,0,0.,24.0,0.,24.0,0.,24.0,0.,24.0
1979-07-12 00:12:32.310 ,0,0,,0,,0,,0,,0
1979-07-12 00:12:56.310 ,0,0,,0,,0,,0,,0
1979-07-12 00:13:20.310 ,0,0,,0,,0,,0,,0
1979-07-12 00:13:44.310 ,0,0,,0,,0,,0,,0
1979-07-12 00:14:08.310 ,0,0,,0,,0,,0,,0
1979-07-12 00:14:32.310 ,0,0,,0,,0,,0,,0
1979-07-12 00:14:56.310 ,0,0,,0,,0,,0,,0
1979-07-12 00:15:20.910 ,0,0,0.,24.0,0.,24.0,0.,24.0,0.,24.0
1979-07-12 00:15:44.310 ,0,0,0.,24.0,0.,24.0,0.,24.0,0.,24.0
1979-07-12 00:16:08.310 ,0,0,,0,,0,,0,,0
1979-07-12 00:16:32.310 ,0,0,0.,24.0,0.,24.0,0.,24.0,0.,24.0
1979-07-12 00:16:56.310 ,0,0,,0,,0,,0,,0
1979-07-12 00:17:20.310 ,0,0,,0,,0,,0,,0
1979-07-12 00:17:44.310 ,0,0,0.,24.0,0.,24.0,0.,24.0,0.,24.0
1979-07-12 00:18:08.310 ,0,0,,0,,0,,0,,0
1979-07-12 00:18:32.310 ,0,0,0.,24.0,0.,24.0,0.,24.0,0.,24.0
1979-07-12 00:18:56.310 ,0,0,,0,,0,,0,,0
1979-07-12 00:19:20.310 ,0,0,,0,,0,,0,,0
1979-07-12 00:19:44.310 ,0,0,,0,,0,,0,,0
1979-07-12 00:20:08.910 ,0,0,,0,,0,,0,,0
1979-07-12 00:20:32.310 ,0,0,0.,24.0,0.,24.0,0.,24.0,0.,24.0
1979-07-12 00:20:56.310 ,0,0,0.,24.0,0.,24.0,0.,24.0,0.,24.0
1979-07-12 00:21:20.310 ,0,0,0.,24.0,0.,24.0,0.,24.0,0.,24.0
1979-07-12 00:21:44.910 ,0,0,0.,24.0,0.,24.0,0.,24.0,0.,24.0
1979-07-12 00:22:08.310 ,7,1,,0,,0,,0,,0
1979-07-12 00:22:32.310 ,0,0,0.,24.0,0.,24.0,0.,24.0,0.,24.0
1979-07-12 00:22:56.310 ,1,1,0.,24.0,0.,24.0,0.,24.0,0.,24.0
1979-07-12 00:23:20.310 ,2,1,0.,24.0,0.,24.0,0.,24.0,0.,24.0
1979-07-12 00:23:44.310 ,6,1,0.,24.0,0.,24.0,0.,24.0,0.,24.0
1979-07-12 00:24:08.310 ,5,1,0.,24.0,0.,24.0,0.,24.0,0.,24.0
1979-07-12 00:24:32.310 ,1,1,0.,24.0,0.,24.0,0.,24.0,0.,24.0
1979-07-12 00:24:56.310 ,2,1,0.,24.0,0.,24.0,0.,24.0,0.,24.0
1979-07-12 00:25:20.310 ,6,1,0.,24.0,0.,24.0,0.,24.0,0.,24.0
1979-07-12 00:25:44.310 ,5,1,0.,24.0,0.,24.0,0.,24.0,0.,24.0
1979-07-12 00:26:08.310 ,1,1,0.,24.0,0.,24.0,0.,24.0,0.,24.0
1979-07-12 00:26:32.310 ,2,1,0.,24.0,0.,24.0,0.,24.0,0.,24.0
1979-07-12 00:26:56.310 ,6,1,0.,24.0,0.,24.0,0.,24.0,0.,24.0
1979-07-12 00:27:20.310 ,5,1,0.,24.0,0.,24.0,0.,24.0,0.,24.0
1979-07-12 00:27:44.310 ,1,1,0.,24.0,0.,24.0,0.,24.0,0.,24.0
1979-07-12 00:28:08.310 ,2,1,0.,24.0,0.,24.0,0.,24.0,0.,24.0
1979-07-12 00:28:32.310 ,6,1,0.,24.0,0.,24.0,0.,24.0,0.,24.0
1979-07-12 00:28:56.310 ,5,1,0.,24.0,0.,24.0,0.,24.0,0.,24.0
1979-07-12 00:29:20.310 ,1,1,0.,24.0,0.,24.0,0.,24.0,0.,24.0
1979-07-12 00:29:44.310 ,0,0,0.,24.0,0.,24.0,0.,24.0,0.,24.0
1979-07-12 00:30:08.310 ,0,0,0.,24.0,0.,24.0,0.,24.0,0.,24.0
1979-07-12 00:30:32.310 ,5,1,0.,24.0,0.,24.0,0.,24.0,0.,24.0
1979-07-12 00:30:56.310 ,5,0,0.,24.0,0.,24.0,0.,24.0,0.,24.0
1979-07-12 00:31:20.310 ,4,1,0.,24.0,0.,24.0,0.,24.0,0.,24.0
1979-07-12 00:31:44.310 ,4,0,0.,24.0,0.,24.0,0.,24.0,0.,24.0
1979-07-12 00:32:08.310 ,3,1,0.,24.0,0.,24.0,0.,24.0,0.,24.0
1979-07-12 00:32:32.310 ,3,0,0.,24.0,0.,24.0,0.,24.0,0.,24.0
1979-07-12 00:32:56.310 ,2,1,0.,24.0,0.,24.0,0.,24.0,0.,24.0
1979-07-12 00:33:20.310 ,2,0,0.,24.0,0.,24.0,0.,24.0,0.,24.0
1979-07-12 00:33:44.310 ,1,1,0.,24.0,0.,24.0,0.,24.0,0.,24.0
1979-07-12 00:34:08.310 ,1,0,0.,24.0,0.,24.0,0.,24.0,0.,24.0
1979-07-12 00:34:32.310 ,0,1,0.,24.0,0.,24.0,0.,24.0,0.,24.0
1979-07-12 00:34:56.310 ,0,0,0.,24.0,0.,24.0,0.,24.0,0.,24.0
1979-07-12 00:35:20.310 ,0,1,0.,24.0,0.,24.0,0.,24.0,0.,24.0
1979-07-12 00:35:44.310 ,0,0,0.,24.0,0.,24.0,0.,24.0,0.,24.0
1979-07-12 00:36:08.310 ,1,1,0.,24.0,0.,24.0,0.,24.0,0.,24.0
1979-07-12 00:36:32.310 ,1,0,0.,24.0,0.,24.0,0.,24.0,0.,24.0
1979-07-12 00:36:56.310 ,2,1,0.,24.0,0.,24.0,0.,24.0,0.,24.0
1979-07-12 00:37:20.310 ,2,0,0.,24.0,0.,24.0,0.,24.0,0.,24.0
1979-07-12 00:37:44.310 ,3,1,0.,24.0,0.,24.0,0.,24.0,0.,24.0
1979-07-12 00:38:08.310 ,3,0,0.,24.0,0.,24.0,0.,24.0,0.,24.0
1979-07-12 00:38:32.310 ,4,1,0.,24.0,0.,24.0,0.,24.0,0.,24.0
1979-07-12 00:38:56.310 ,4,0,0.,24.0,0.,24.0,0.,24.0,0.,24.0
1979-07-12 00:39:20.310 ,5,1,0.,24.0,0.,24.0,0.,24.0,0.,24.0
1979-07-12 00:39:44.310 ,5,0,0.,24.0,0.,24.0,0.,24.0,0.,24.0
1979-07-12 00:40:08.310 ,6,1,0.,24.0,0.,24.0,0.,24.0,0.,24.0
1979-07-12 00:40:32.310 ,6,0,0.,24.0,0.,24.0,0.,24.0,0.,24.0
1979-07-12 00:40:56.310 ,7,1,0.,24.0,0.,24.0,0.,24.0,0.,24.0
1979-07-12 00:41:20.310 ,7,0,0.,24.0,0.,24.0,0.,24.0,0.,24.0
1979-07-12 00:41:44.310 ,7,1,0.,24.0,0.,24.0,0.,24.0,0.,24.0
1979-07-12 00:42:08.310 ,7,0,0.,24.0,0.,24.0,0.,24.0,0.,24.0
1979-07-12 00:42:32.310 ,6,1,0.,24.0,0.,24.0,0.,24.0,0.,24.0
1979-07-12 00:42:56.310 ,6,0,0.,24.0,0.,24.0,0.,24.0,0.,24.0
1979-07-12 00:43:20.310 ,5,1,0.,24.0,0.,24.0,0.,24.0,0.,24.0
1979-07-12 00:43:44.310 ,5,0,0.,24.0,0.,24.0,0.,24.0,0.,24.0
1979-07-12 00:44:08.310 ,4,1,0.,24.0,0.,24.0,0.,24.0,0.,24.0
1979-07-12 00:44:32.310 ,4,0,0.,24.0,0.,24.0,0.,24.0,0.,24.0
1979-07-12 00:44:56.310 ,3,1,0.,24.0,0.,24.0,0.,24.0,0.,24.0
1979-07-12 00:45:20.310 ,3,0,0.,24.0,0.,24.0,0.,24.0,0.,24.0
1979-07-12 00:45:44.310 ,2,1,0.,24.0,0.,24.0,0.,24.0,0.,24.0
1979-07-12 00:46:08.310 ,2,0,0.,24.0,0.,24.0,0.,24.0,0.,24.0
1979-07-12 00:46:32.310 ,1,1,0.,24.0,0.,24.0,0.,24.0,0.,24.0
1979-07-12 00:46:56.310 ,1,0,0.,24.0,0.,24.0,0.,24.0,0.,24.0
1979-07-12 00:47:20.310 ,0,1,0.,24.0,0.,24.0,0.,24.0,0.,24.0
1979-07-12 00:47:44.310 ,0,0,0.,24.0,0.,24.0,0.,24.0,0.,24.0
1979-07-12 00:48:08.310 ,0,1,0.,24.0,0.,24.0,0.,24.0,0.,24.0
1979-07-12 00:48:32.310 ,0,0,0.,24.0,0.,24.0,0.,24.0,0.,24.0
1979-07-12 00:48:56.310 ,1,1,0.,24.0,0.,24.0,0.,24.0,0.,24.0
1979-07-12 00:49:20.310 ,1,0,0.,24.0,0.,24.0,0.,24.0,0.,24.0
1979-07-12 00:49:44.310 ,2,1,0.,24.0,0.,24.0,0.,24.0,0.,24.0
1979-07-12 00:50:08.310 ,2,0,0.,24.0,0.,24.0,0.,24.0,0.,24.0
1979-07-12 00:50:32.310 ,3,1,0.,24.0,0.,24.0,0.,24.0,0.,24.0
1979-07-12 00:50:56.310 ,3,0,0.,24.0,0.,24.0,0.,24.0,0.,24.0
1979-07-12 00:51:20.310 ,4,1,0.,24.0,0.,24.0,0.,24.0,0.,24.0
1979-07-12 00:51:44.310 ,4,0,0.,24.0,0.,24.0,0.,24.0,0.,24.0
1979-07-12 00:52:08.310 ,5,1,0.,24.0,0.,24.0,0.,24.0,0.,24.0
1979-07-12 00:52:32.310 ,5,0,0.,24.0,0.,24.0,0.,24.0,0.,24.0
1979-07-12 00:52:56.310 ,6,1,0.,24.0,0.,24.0,0.,24.0,0.,24.0
1979-07-12 00:53:20.310 ,6,0,0.,24.0,0.,24.0,0.,24.0,0.,24.0
1979-07-12 00:53:44.310 ,7,1,0.,24.0,0.,24.0,0.,24.0,0.,24.0
1979-07-12 00:54:08.310 ,7,0,0.,24.0,0.,24.0,0.,24.0,0.,24.0
1979-07-12 00:54:32.310 ,7,1,0.,24.0,0.,24.0,0.,24.0,0.,24.0
1979-07-12 00:54:56.310 ,7,0,0.,24.0,0.,24.0,0.,24.0,0.,24.0
1979-07-12 00:55:20.310 ,6,1,0.,24.0,0.,24.0,0.,24.0,0.,24.0
1979-07-12 00:55:44.310 ,6,0,0.,24.0,0.,24.0,0.,24.0,0.,24.0
1979-07-12 00:56:08.310 ,5,1,0.,24.0,0.,24.0,0.,24.0,0.,24.0
1979-07-12 00:56:32.310 ,5,0,0.,24.0,0.,24.0,0.,24.0,0.,24.0
1979-07-12 00:56:56.310 ,4,1,0.,24.0,0.,24.0,0.,24.0,0.,24.0
1979-07-12 00:57:20.310 ,4,0,0.,24.0,0.,24.0,0.,24.0,0.,24.0
1979-07-12 00:57:44.310 ,3,1,0.,24.0,0.,24.0,0.,24.0,0.,24.0
1979-07-12 00:58:08.310 ,3,0,0.,24.0,0.,24.0,0.,24.0,0.,24.0
1979-07-12 00:58:32.310 ,2,1,0.,24.0,0.,24.0,0.,24.0,0.,24.0
1979-07-12 00:58:56.310 ,2,0,0.,24.0,0.,24.0,0.,24.0,0.,24.0
1979-07-12 00:59:20.310 ,1,1,0.,24.0,0.,24.0,0.,24.0,0.,24.0
1979-07-12 00:59:44.310 ,1,0,0.,24.0,0.,24.0,0.,24.0,0.,24.0
1979-07-12 01:00:08.310 ,0,1,0.,24.0,0.,24.0,0.,24.0,0.,24.0
1979-07-12 01:00:32.310 ,0,0,0.,24.0,0.,24.0,0.,24.0,0.,24.0
1979-07-12 01:00:56.310 ,0,1,0.,24.0,0.,24.0,0.,24.0,0.,24.0
1979-07-12 01:01:20.310 ,0,0,0.,24.0,0.,24.0,0.,24.0,0.,24.0
1979-07-12 01:01:44.310 ,1,1,0.,24.0,0.,24.0,0.,24.0,0.,24.0
1979-07-12 01:02:08.310 ,1,0,0.,24.0,0.,24.0,0.,24.0,0.,24.0
1979-07-12 01:02:32.310 ,2,1,0.,24.0,0.,24.0,0.,24.0,0.,24.0
1979-07-12 01:02:56.310 ,2,0,0.,24.0,0.,24.0,0.,24.0,0.,24.0
1979-07-12 01:03:20.310 ,3,1,0.,24.0,0.,24.0,0.,24.0,0.,24.0
1979-07-12 01:03:44.310 ,3,0,0.,24.0,0.,24.0,0.,24.0,0.,24.0
1979-07-12 01:04:08.310 ,4,1,0.,24.0,0.,24.0,0.,24.0,0.,24.0
1979-07-12 01:04:32.310 ,4,0,0.,24.0,0.,24.0,0.,24.0,0.,24.0
1979-07-12 01:04:56.310 ,5,1,0.,24.0,0.,24.0,0.,24.0,0.,24.0
1979-07-12 01:05:20.310 ,5,0,0.,24.0,0.,24.0,0.,24.0,0.,24.0
1979-07-12 01:05:44.310 ,6,1,0.,24.0,0.,24.0,0.,24.0,0.,24.0
1979-07-12 01:06:08.310 ,6,0,0.,24.0,0.,24.0,0.,24.0,0.,24.0
1979-07-12 01:07:20.310 ,0,0,0.,24.0,0.,24.0,0.,24.0,0.,24.0
1979-07-12 01:07:44.310 ,1,1,0.,24.0,0.,24.0,0.,24.0,0.,24.0
1979-07-12 01:08:08.310 ,2,1,0.,24.0,0.,24.0,0.,24.0,0.,24.0
1979-07-12 01:08:32.310 ,6,1,0.,24.0,0.,24.0,0.,24.0,0.,24.0
1979-07-12 01:08:56.310 ,5,1,0.,24.0,0.,24.0,0.,24.0,0.,24.0
1979-07-12 01:09:20.310 ,1,1,0.,24.0,0.,24.0,0.,24.0,0.,24.0
1979-07-12 01:09:44.310 ,2,1,0.,24.0,0.,24.0,0.,24.0,0.,24.0
1979-07-12 01:10:08.310 ,6,1,0.,24.0,0.,24.0,0.,24.0,0.,24.0
1979-07-12 01:10:32.310 ,5,1,0.,24.0,0.,24.0,0.,24.0,0.,24.0
1979-07-12 01:10:56.310 ,1,1,0.,24.0,0.,24.0,0.,24.0,0.,24.0
1979-07-12 01:11:20.310 ,2,1,0.,24.0,0.,24.0,0.,24.0,0.,24.0
1979-07-12 01:11:44.310 ,6,1,0.,24.0,0.,24.0,0.,24.0,0.,24.0
1979-07-12 01:12:08.310 ,5,1,0.,24.0,0.,24.0,0.,24.0,0.,24.0
1979-07-12 01:12:32.310 ,1,1,0.,24.0,0.,24.0,0.,24.0,0.,24.0
1979-07-12 01:12:56.310 ,2,1,0.,24.0,0.,24.0,0.,24.0,0.,24.0
1979-07-12 01:13:20.310 ,6,1,0.,24.0,0.,24.0,0.,24.0,0.,24.0
1979-07-12 01:13:44.310 ,5,1,0.,24.0,0.,24.0,0.,24.0,0.,24.0
1979-07-12 01:14:08.310 ,1,1,0.,24.0,0.,24.0,0.,24.0,0.,24.0
1979-07-12 01:14:32.310 ,2,1,0.,24.0,0.,24.0,0.,24.0,0.,24.0
1979-07-12 01:14:56.310 ,6,1,0.,24.0,0.,24.0,0.,24.0,0.,24.0
1979-07-12 01:15:20.310 ,5,1,0.,24.0,0.,24.0,0.,24.0,0.,24.0
1979-07-12 01:15:44.310 ,1,1,0.,24.0,0.,24.0,0.,24.0,0.,24.0
1979-07-12 01:16:08.310 ,2,1,0.,24.0,0.,24.0,0.,24.0,0.,24.0
1979-07-12 01:16:32.310 ,6,1,0.,24.0,0.,24.0,0.,24.0,0.,24.0
1979-07-12 01:16:56.310 ,5,1,0.,24.0,0.,24.0,0.,24.0,0.,24.0
1979-07-12 01:17:20.310 ,1,1,0.,24.0,0.,24.0,0.,24.0,0.,24.0
1979-07-12 01:17:44.310 ,0,0,0.,24.0,0.,24.0,0.,24.0,0.,24.0
1979-07-12 01:18:08.310 ,0,0,0.,24.0,0.,24.0,0.,24.0,0.,24.0
1979-07-12 01:18:32.310 ,5,1,0.,24.0,0.,24.0,0.,24.0,0.,24.0
1979-07-12 01:18:56.310 ,5,0,0.,24.0,0.,24.0,0.,24.0,0.,24.0
1979-07-12 01:19:20.310 ,4,1,0.,24.0,0.,24.0,0.,24.0,0.,24.0
1979-07-12 01:19:44.310 ,4,0,0.,24.0,0.,24.0,0.,24.0,0.,24.0
1979-07-12 01:20:08.310 ,3,1,0.,24.0,0.,24.0,0.,24.0,0.,24.0
1979-07-12 01:20:32.310 ,3,0,0.,24.0,0.,24.0,0.,24.0,0.,24.0
1979-07-12 01:20:56.310 ,2,1,0.,24.0,0.,24.0,0.,24.0,0.,24.0
1979-07-12 01:21:20.310 ,2,0,0.,24.0,0.,24.0,0.,24.0,0.,24.0
1979-07-12 01:21:44.310 ,1,1,0.,24.0,0.,24.0,0.,24.0,0.,24.0
1979-07-12 01:22:08.310 ,1,0,0.,24.0,0.,24.0,0.,24.0,0.,24.0
1979-07-12 01:22:32.310 ,0,1,0.,24.0,0.,24.0,0.,24.0,0.,24.0
1979-07-12 01:22:56.310 ,0,0,0.,24.0,0.,24.0,0.,24.0,0.,24.0
1979-07-12 01:23:20.310 ,0,1,0.,24.0,0.,24.0,0.,24.0,0.,24.0
1979-07-12 01:23:44.310 ,0,0,0.,24.0,0.,24.0,0.,24.0,0.,24.0
1979-07-12 01:24:08.310 ,1,1,0.,24.0,0.,24.0,0.,24.0,0.,24.0
1979-07-12 01:24:32.310 ,1,0,0.,24.0,0.,24.0,0.,24.0,0.,24.0
1979-07-12 01:24:56.310 ,2,1,0.,24.0,0.,24.0,0.,24.0,0.,24.0
1979-07-12 01:25:20.310 ,2,0,0.,24.0,0.,24.0,0.,24.0,0.,24.0
1979-07-12 01:25:44.310 ,3,1,0.,24.0,0.,24.0,0.,24.0,0.,24.0
1979-07-12 01:26:08.310 ,3,0,0.,24.0,0.,24.0,0.,24.0,0.,24.0
1979-07-12 01:26:32.310 ,4,1,0.,24.0,0.,24.0,0.,24.0,0.,24.0
1979-07-12 01:26:56.310 ,4,0,0.,24.0,0.,24.0,0.,24.0,0.,24.0
1979-07-12 01:27:20.310 ,5,1,0.,24.0,0.,24.0,0.,24.0,0.,24.0
1979-07-12 01:27:44.310 ,5,0,0.,24.0,0.,24.0,0.,24.0,0.,24.0
1979-07-12 01:28:08.310 ,6,1,0.,24.0,0.,24.0,0.,24.0,0.,24.0
1979-07-12 01:28:32.310 ,6,0,0.,24.0,0.,24.0,0.,24.0,0.,24.0
1979-07-12 01:28:56.310 ,7,1,0.,24.0,0.,24.0,0.,24.0,0.,24.0
1979-07-12 01:29:20.310 ,7,0,0.,24.0,0.,24.0,0.,24.0,0.,24.0
1979-07-12 01:29:44.310 ,7,1,0.,24.0,0.,24.0,0.,24.0,0.,24.0
1979-07-12 01:30:08.310 ,7,0,0.,24.0,0.,24.0,0.,24.0,0.,24.0
1979-07-12 01:30:32.310 ,6,1,0.,24.0,0.,24.0,0.,24.0,0.,24.0
1979-07-12 01:30:56.310 ,6,0,0.,24.0,0.,24.0,0.,24.0,0.,24.0
1979-07-12 01:31:20.310 ,5,1,0.,24.0,0.,24.0,0.,24.0,0.,24.0
1979-07-12 01:31:44.310 ,5,0,0.,24.0,0.,24.0,0.,24.0,0.,24.0
1979-07-12 01:32:08.310 ,4,1,0.,24.0,0.,24.0,0.,24.0,0.,24.0
1979-07-12 01:32:32.310 ,4,0,0.,24.0,0.,24.0,0.,24.0,0.,24.0
1979-07-12 01:32:56.310 ,3,1,0.,24.0,0.,24.0,0.,24.0,0.,24.0
1979-07-12 01:33:20.310 ,3,0,0.,24.0,0.,24.0,0.,24.0,0.,24.0
1979-07-12 01:33:44.310 ,2,1,0.,24.0,0.,24.0,0.,24.0,0.,24.0
1979-07-12 01:34:08.310 ,2,0,0.,24.0,0.,24.0,0.,24.0,0.,24.0
1979-07-12 01:34:32.310 ,1,1,0.,24.0,0.,24.0,0.,24.0,0.,24.0
1979-07-12 01:34:56.310 ,1,0,0.,24.0,0.,24.0,0.,24.0,0.,24.0
1979-07-12 01:35:20.310 ,0,1,0.,24.0,0.,24.0,0.,24.0,0.,24.0
1979-07-12 01:35:44.310 ,0,0,0.,24.0,0.,24.0,0.,24.0,0.,24.0
1979-07-12 01:36:08.310 ,0,1,0.,24.0,0.,24.0,0.,24.0,0.,24.0
1979-07-12 01:36:32.310 ,0,0,0.,24.0,0.,24.0,0.,24.0,0.,24.0
1979-07-12 01:36:56.310 ,1,1,0.,24.0,0.,24.0,0.,24.0,0.,24.0
1979-07-12 01:37:20.310 ,1,0,0.,24.0,0.,24.0,0.,24.0,0.,24.0
1979-07-12 01:37:44.310 ,2,1,0.,24.0,0.,24.0,0.,24.0,0.,24.0
1979-07-12 01:38:08.310 ,2,0,0.,24.0,0.,24.0,0.,24.0,0.,24.0
1979-07-12 01:38:32.310 ,3,1,0.,24.0,0.,24.0,0.,24.0,0.,24.0
1979-07-12 01:38:56.310 ,3,0,0.,24.0,0.,24.0,0.,24.0,0.,24.0
1979-07-12 01:39:20.310 ,4,1,0.,24.0,0.,24.0,0.,24.0,0.,24.0
1979-07-12 01:39:44.310 ,4,0,0.,24.0,0.,24.0,0.,24.0,0.,24.0
1979-07-12 01:40:08.310 ,5,1,0.,24.0,0.,24.0,0.,24.0,0.,24.0
1979-07-12 01:40:32.310 ,5,0,0.,24.0,0.,24.0,0.,24.0,0.,24.0
1979-07-12 01:40:56.310 ,6,1,0.,24.0,0.,24.0,0.,24.0,0.,24.0
1979-07-12 01:41:20.310 ,6,0,0.,24.0,0.,24.0,0.,24.0,0.,24.0
1979-07-12 01:41:44.310 ,7,1,0.,24.0,0.,24.0,0.,24.0,0.,24.0
1979-07-12 01:42:08.310 ,7,0,0.,24.0,0.,24.0,0.,24.0,0.,24.0
1979-07-12 01:42:32.310 ,7,1,0.,24.0,0.,24.0,0.,24.0,0.,24.0
1979-07-12 01:42:56.310 ,7,0,0.,24.0,0.,24.0,0.,24.0,0.,24.0
1979-07-12 01:43:20.310 ,6,1,0.,24.0,0.,24.0,0.,24.0,0.,24.0
1979-07-12 01:43:44.310 ,6,0,0.,24.0,0.,24.0,0.,24.0,0.,24.0
1979-07-12 01:44:08.310 ,5,1,0.,24.0,0.,24.0,0.,24.0,0.,24.0
1979-07-12 01:44:32.310 ,5,0,0.,24.0,0.,24.0,0.,24.0,0.,24.0
1979-07-12 01:44:56.310 ,4,1,0.,24.0,0.,24.0,0.,24.0,0.,24.0
1979-07-12 01:45:20.310 ,4,0,0.,24.0,0.,24.0,0.,24.0,0.,24.0
1979-07-12 01:45:44.310 ,3,1,0.,24.0,0.,24.0,0.,24.0,0.,24.0
1979-07-12 01:46:08.310 ,3,0,0.,24.0,0.,24.0,0.,24.0,0.,24.0
1979-07-12 01:46:32.310 ,2,1,0.,24.0,0.,24.0,0.,24.0,0.,24.0
1979-07-12 01:46:56.310 ,2,0,0.,24.0,0.,24.0,0.,24.0,0.,24.0
1979-07-12 01:47:20.310 ,1,1,0.,24.0,0.,24.0,0.,24.0,0.,24.0
1979-07-12 01:47:44.310 ,1,0,0.,24.0,0.,24.0,0.,24.0,0.,24.0
1979-07-12 01:48:08.310 ,0,1,0.,24.0,0.,24.0,0.,24.0,0.,24.0
1979-07-12 01:48:32.310 ,0,0,0.,24.0,0.,24.0,0.,24.0,0.,24.0
1979-07-12 01:48:56.310 ,0,1,0.,24.0,0.,24.0,0.,24.0,0.,24.0
1979-07-12 01:49:20.310 ,0,0,0.,24.0,0.,24.0,0.,24.0,0.,24.0
1979-07-12 01:49:44.310 ,1,1,0.,24.0,0.,24.0,0.,24.0,0.,24.0
1979-07-12 01:50:08.310 ,1,0,0.,24.0,0.,24.0,0.,24.0,0.,24.0
1979-07-12 01:50:32.310 ,2,1,0.,24.0,0.,24.0,0.,24.0,0.,24.0
1979-07-12 01:50:56.310 ,2,0,0.,24.0,0.,24.0,0.,24.0,0.,24.0
1979-07-12 01:51:20.310 ,3,1,0.,24.0,0.,24.0,0.,24.0,0.,24.0
1979-07-12 01:51:44.310 ,3,0,0.,24.0,0.,24.0,0.,24.0,0.,24.0
1979-07-12 01:52:08.310 ,4,1,0.,24.0,0.,24.0,0.,24.0,0.,24.0
1979-07-12 01:52:32.310 ,4,0,0.,24.0,0.,24.0,0.,24.0,0.,24.0
1979-07-12 01:52:56.310 ,5,1,0.,24.0,0.,24.0,0.,24.0,0.,24.0
1979-07-12 01:53:20.310 ,5,0,0.,24.0,0.,24.0,0.,24.0,0.,24.0
1979-07-12 01:53:44.310 ,6,1,0.,24.0,0.,24.0,0.,24.0,0.,24.0
1979-07-12 01:54:08.310 ,6,0,0.,24.0,0.,24.0,0.,24.0,0.,24.0
1979-07-12 01:54:32.310 ,7,0,0.,24.0,0.,24.0,0.,24.0,0.,24.0
1979-07-12 01:54:56.310 ,7,0,0.,24.0,0.,24.0,0.,24.0,0.,24.0
1979-07-12 01:55:20.310 ,5,1,0.,24.0,0.,24.0,0.,24.0,0.,24.0
1979-07-12 01:55:44.310 ,1,1,0.,24.0,0.,24.0,0.,24.0,0.,24.0
1979-07-12 01:56:08.310 ,2,1,0.,24.0,0.,24.0,0.,24.0,0.,24.0
1979-07-12 01:56:32.310 ,6,1,0.,24.0,0.,24.0,0.,24.0,0.,24.0
1979-07-12 01:56:56.310 ,5,1,0.,24.0,0.,24.0,0.,24.0,0.,24.0
1979-07-12 01:57:20.310 ,1,1,0.,24.0,0.,24.0,0.,24.0,0.,24.0
1979-07-12 01:57:44.310 ,2,1,0.,24.0,0.,24.0,0.,24.0,0.,24.0
1979-07-12 01:58:08.310 ,6,1,0.,24.0,0.,24.0,0.,24.0,0.,24.0
1979-07-12 01:58:32.310 ,5,1,0.,24.0,0.,24.0,0.,24.0,0.,24.0
1979-07-12 01:58:56.310 ,1,1,0.,24.0,0.,24.0,0.,24.0,0.,24.0
1979-07-12 01:59:20.310 ,2,1,0.,24.0,0.,24.0,0.,24.0,0.,24.0
1979-07-12 01:59:44.310 ,6,1,0.,24.0,0.,24.0,0.,24.0,0.,24.0
1979-07-12 02:00:08.310 ,5,1,0.,24.0,0.,24.0,0.,24.0,0.,24.0
1979-07-12 02:00:32.310 ,1,1,0.,24.0,0.,24.0,0.,24.0,0.,24.0
1979-07-12 02:00:56.310 ,2,1,0.,24.0,0.,24.0,0.,24.0,0.,24.0
1979-07-12 02:01:20.310 ,6,1,0.,24.0,0.,24.0,0.,24.0,0.,24.0
1979-07-12 02:01:44.310 ,5,1,0.,24.0,0.,24.0,0.,24.0,0.,24.0
1979-07-12 02:02:08.310 ,1,1,0.,24.0,0.,24.0,0.,24.0,0.,24.0
1979-07-12 02:02:32.310 ,2,1,0.,24.0,0.,24.0,0.,24.0,0.,24.0
1979-07-12 02:02:56.310 ,6,1,0.,24.0,0.,24.0,0.,24.0,0.,24.0
1979-07-12 02:03:20.310 ,5,1,0.,24.0,0.,24.0,0.,24.0,0.,24.0
1979-07-12 02:03:44.310 ,1,1,0.,24.0,0.,24.0,0.,24.0,0.,24.0
1979-07-12 02:04:08.310 ,2,1,0.,24.0,0.,24.0,0.,24.0,0.,24.0
1979-07-12 02:04:32.310 ,6,1,0.,24.0,0.,24.0,0.,24.0,0.,24.0
1979-07-12 02:04:56.310 ,5,1,0.,24.0,0.,24.0,0.,24.0,0.,24.0
1979-07-12 02:05:20.310 ,1,1,0.,24.0,0.,24.0,0.,24.0,0.,24.0
1979-07-12 02:05:44.310 ,0,0,0.,24.0,0.,24.0,0.,24.0,0.,24.0
1979-07-12 02:06:08.310 ,0,0,0.,24.0,0.,24.0,0.,24.0,0.,24.0
1979-07-12 02:06:32.310 ,5,1,0.,24.0,0.,24.0,0.,24.0,0.,24.0
1979-07-12 02:06:56.310 ,5,0,0.,24.0,0.,24.0,0.,24.0,0.,24.0
1979-07-12 02:07:20.310 ,4,1,0.,24.0,0.,24.0,0.,24.0,0.,24.0
1979-07-12 02:07:44.310 ,4,0,0.,24.0,0.,24.0,0.,24.0,0.,24.0
1979-07-12 02:08:08.310 ,3,1,0.,24.0,0.,24.0,0.,24.0,0.,24.0
1979-07-12 02:08:32.310 ,0,0,0.,24.0,0.,24.0,0.,24.0,0.,24.0
1979-07-12 02:09:46.110 ,0,0,0.,24.0,0.,24.0,0.,24.0,0.,24.0
1979-07-12 02:10:08.310 ,0,0,0.,24.0,0.,24.0,0.,24.0,0.,24.0
1979-07-12 02:10:32.310 ,0,1,0.,24.0,0.,24.0,0.,24.0,0.,24.0
1979-07-12 02:10:56.310 ,0,0,0.,24.0,0.,24.0,0.,24.0,0.,24.0
1979-07-12 02:11:20.310 ,0,1,0.,24.0,0.,24.0,0.,24.0,0.,24.0
1979-07-12 02:11:44.310 ,0,0,0.,24.0,0.,24.0,0.,24.0,0.,24.0
1979-07-12 02:12:08.310 ,1,1,0.,24.0,0.,24.0,0.,24.0,0.,24.0
1979-07-12 02:12:32.310 ,1,0,0.,24.0,0.,24.0,0.,24.0,0.,24.0
1979-07-12 02:12:56.310 ,2,1,0.,24.0,0.,24.0,0.,24.0,0.,24.0
1979-07-12 02:13:20.310 ,2,0,0.,24.0,0.,24.0,0.,24.0,0.,24.0
1979-07-12 02:13:44.310 ,3,1,0.,24.0,0.,24.0,0.,24.0,0.,24.0
1979-07-12 02:14:08.310 ,3,0,0.,24.0,0.,24.0,0.,24.0,0.,24.0
1979-07-12 02:14:32.310 ,4,1,0.,24.0,0.,24.0,0.,24.0,0.,24.0
1979-07-12 02:14:56.310 ,0,0,0.,24.0,0.,24.0,0.,24.0,0.,24.0
1979-07-12 02:14:56.310 ,4,0,0.,24.0,0.,24.0,0.,24.0,0.,24.0
1979-07-12 02:15:20.310 ,5,1,0.,24.0,0.,24.0,0.,24.0,0.,24.0
1979-07-12 02:15:44.310 ,5,0,0.,24.0,0.,24.0,0.,24.0,0.,24.0
1979-07-12 02:16:08.310 ,6,1,0.,24.0,0.,24.0,0.,24.0,0.,24.0
1979-07-12 02:16:32.310 ,6,0,0.,24.0,0.,24.0,0.,24.0,0.,24.0
1979-07-12 02:16:56.310 ,7,1,0.,24.0,0.,24.0,0.,24.0,0.,24.0
1979-07-12 02:17:20.310 ,7,0,0.,24.0,0.,24.0,0.,24.0,0.,24.0
1979-07-12 02:17:44.310 ,7,1,0.,24.0,0.,24.0,0.,24.0,0.,24.0
1979-07-12 02:18:08.310 ,7,0,0.,24.0,0.,24.0,0.,24.0,0.,24.0
1979-07-12 02:18:32.310 ,6,1,0.,24.0,0.,24.0,0.,24.0,0.,24.0
1979-07-12 02:18:56.310 ,6,0,0.,24.0,0.,24.0,0.,24.0,0.,24.0
1979-07-12 02:19:20.310 ,5,1,0.,24.0,0.,24.0,0.,24.0,0.,24.0
1979-07-12 02:19:44.310 ,5,0,0.,24.0,0.,24.0,0.,24.0,0.,24.0
1979-07-12 02:20:08.310 ,4,1,0.,24.0,0.,24.0,0.,24.0,0.,24.0
1979-07-12 02:20:32.310 ,4,0,0.,24.0,0.,24.0,0.,24.0,0.,24.0
1979-07-12 02:20:56.310 ,3,1,0.,24.0,0.,24.0,0.,24.0,0.,24.0
1979-07-12 02:21:20.310 ,3,0,0.,24.0,0.,24.0,0.,24.0,0.,24.0
1979-07-12 02:21:44.310 ,2,1,0.,24.0,0.,24.0,0.,24.0,0.,24.0
1979-07-12 02:22:08.310 ,2,0,0.,24.0,0.,24.0,0.,24.0,0.,24.0
1979-07-12 02:22:32.310 ,1,1,0.,24.0,0.,24.0,0.,24.0,0.,24.0
1979-07-12 02:22:56.310 ,1,0,0.,24.0,0.,24.0,0.,24.0,0.,24.0
1979-07-12 02:23:20.310 ,0,1,0.,24.0,0.,24.0,0.,24.0,0.,24.0
1979-07-12 02:23:44.310 ,0,0,0.,24.0,0.,24.0,0.,24.0,0.,24.0
1979-07-12 02:24:08.310 ,0,1,0.,24.0,0.,24.0,0.,24.0,0.,24.0
1979-07-12 02:24:32.310 ,0,0,0.,24.0,0.,24.0,0.,24.0,0.,24.0
1979-07-12 02:24:56.310 ,1,1,0.,24.0,0.,24.0,0.,24.0,0.,24.0
1979-07-12 02:25:20.310 ,1,0,0.,24.0,0.,24.0,0.,24.0,0.,24.0
1979-07-12 02:25:44.310 ,2,1,0.,24.0,0.,24.0,0.,24.0,0.,24.0
1979-07-12 02:26:08.310 ,2,0,0.,24.0,0.,24.0,0.,24.0,0.,24.0
1979-07-12 02:26:32.310 ,3,1,0.,24.0,0.,24.0,0.,24.0,0.,24.0
1979-07-12 02:26:56.310 ,3,0,0.,24.0,0.,24.0,0.,24.0,0.,24.0
1979-07-12 02:27:20.310 ,4,1,0.,24.0,0.,24.0,0.,24.0,0.,24.0
1979-07-12 02:27:44.310 ,4,0,0.,24.0,0.,24.0,0.,24.0,0.,24.0
1979-07-12 02:28:08.310 ,5,1,0.,24.0,0.,24.0,0.,24.0,0.,24.0
1979-07-12 02:28:32.310 ,5,0,0.,24.0,0.,24.0,0.,24.0,0.,24.0
1979-07-12 02:28:56.310 ,6,1,0.,24.0,0.,24.0,0.,24.0,0.,24.0
1979-07-12 02:29:20.310 ,6,0,0.,24.0,0.,24.0,0.,24.0,0.,24.0
1979-07-12 02:29:44.310 ,7,1,0.,24.0,0.,24.0,0.,24.0,0.,24.0
1979-07-12 02:30:08.310 ,7,0,0.,24.0,0.,24.0,0.,24.0,0.,24.0
1979-07-12 02:30:32.310 ,7,1,0.,24.0,0.,24.0,0.,24.0,0.,24.0
1979-07-12 02:30:56.310 ,7,0,0.,24.0,0.,24.0,0.,24.0,0.,24.0
1979-07-12 02:31:20.310 ,6,1,0.,24.0,0.,24.0,0.,24.0,0.,24.0
1979-07-12 02:31:44.310 ,6,0,0.,24.0,0.,24.0,0.,24.0,0.,24.0
1979-07-12 02:32:08.310 ,5,1,0.,24.0,0.,24.0,0.,24.0,0.,24.0
1979-07-12 02:32:32.310 ,5,0,0.,24.0,0.,24.0,0.,24.0,0.,24.0
1979-07-12 02:32:56.310 ,4,1,0.,24.0,0.,24.0,0.,24.0,0.,24.0
1979-07-12 02:33:20.310 ,4,0,0.,24.0,0.,24.0,0.,24.0,0.,24.0
1979-07-12 02:33:44.310 ,3,1,0.,24.0,0.,24.0,0.,24.0,0.,24.0
1979-07-12 02:34:08.310 ,3,0,0.,24.0,0.,24.0,0.,24.0,0.,24.0
1979-07-12 02:34:32.310 ,2,1,0.,24.0,0.,24.0,0.,24.0,0.,24.0
1979-07-12 02:34:56.310 ,2,0,0.,24.0,0.,24.0,0.,24.0,0.,24.0
1979-07-12 02:35:20.310 ,1,1,0.,24.0,0.,24.0,0.,24.0,0.,24.0
1979-07-12 02:35:44.310 ,1,0,0.,24.0,0.,24.0,0.,24.0,0.,24.0
1979-07-12 02:36:08.310 ,0,1,0.,24.0,0.,24.0,0.,24.0,0.,24.0
1979-07-12 02:36:32.310 ,0,0,0.,24.0,0.,24.0,0.,24.0,0.,24.0
1979-07-12 02:36:56.310 ,0,1,0.,24.0,0.,24.0,0.,24.0,0.,24.0
1979-07-12 02:37:20.310 ,0,0,0.,24.0,0.,24.0,0.,24.0,0.,24.0
1979-07-12 02:37:44.310 ,1,1,0.,24.0,0.,24.0,0.,24.0,0.,24.0
1979-07-12 02:38:08.310 ,1,0,0.,24.0,0.,24.0,0.,24.0,0.,24.0
1979-07-12 02:38:32.300 ,2,1,0.,24.0,0.,24.0,0.,24.0,0.,24.0
1979-07-12 02:38:56.300 ,0,0,0.,24.0,0.,24.0,0.,24.0,0.,24.0
1979-07-12 02:39:11.300 ,0,0,,0,,0,,0,,0
1979-07-12 02:39:11.300 ,0,0,,0,,0,,0,,0
1979-07-12 02:39:11.900 ,0,0,,0,,0,,0,,0
1979-07-12 02:39:20.300 ,3,1,0.,24.0,0.,24.0,0.,24.0,0.,24.0
1979-07-12 02:39:44.300 ,3,0,0.,24.0,0.,24.0,0.,24.0,0.,24.0
1979-07-12 02:40:08.300 ,4,1,0.,24.0,0.,24.0,0.,24.0,0.,24.0